Location: Brno
(49.2000°N, 16.6330°E)
Time: 20:46:48
(UTC+02:00)

X-37B - Pass Details

Date: 18 June 2021
Orbit: 383 x 392 km, 45.0° (Epoch: 01 July)

Event Time Altitude Azimuth Distance (km) Brightness Sun altitude
Exits shadow 02:48:16 25° 227° (SW) 829 1.7 -13.1°
Maximum altitude 02:49:35 38° 177° (S) 607 1.1 -13.0°
Drops below altitude 10° 02:52:34 10° 107° (ESE) 1,408 3.5 -12.8°
Sets 02:54:42 0° 99° (E) 2,264 4.7 -12.6°
